Location: Stara Lesna
(49.1528°N, 20.2911°E)
Time: 06:08:17
(UTC+02:00)

Cosmos 2219 - Pass Details

Date: 21 September 2019
Orbit: 834 x 860 km, 71.1° (Epoch: 18 October)

Event Time Altitude Azimuth Distance (km) Brightness Sun altitude
Rises 05:26:03 0° 330° (NNW) 3,432 6.2 -10.1°
Reaches altitude 10° 05:28:32 10° 328° (NNW) 2,488 5.5 -9.7°
Maximum altitude 05:34:12 69° 246° (WSW) 907 3.2 -8.8°
Drops below altitude 10° 05:39:48 10° 164° (SSE) 2,454 5.7 -7.9°
Sets 05:42:13 0° 162° (SSE) 3,381 6.4 -7.5°
